Location: Stara Lesna
(49.1528°N, 20.2911°E)
Time: 20:59:00
(UTC+02:00)

IDEFIX/ARIANE 42P - Pass Details

Date: 21 September 2019
Orbit: 786 x 802 km, 98.3° (Epoch: 22 October)

Event Time Altitude Azimuth Distance (km) Brightness Sun altitude
Rises 04:44:55 0° 13° (NNE) 3,326 6.3 -16.5°
Reaches altitude 10° 04:47:15 10° 13° (NNE) 2,391 5.5 -16.1°
Maximum altitude 04:52:33 82° 286° (WNW) 818 2.5 -15.3°
Drops below altitude 10° 04:57:49 10° 200° (SSW) 2,373 4.7 -14.5°
Enters shadow 04:58:45 - 200° (SSW) 2,748 5.0 -14.4°
